Time,TemperatureF,DewpointF,PressureIn,WindDirection,WindDirectionDegrees,WindSpeedMPH,WindSpeedGustMPH,Humidity,HourlyPrecipIn,Conditions,Clouds,dailyrainin,SolarRadiationWatts/m^2,SoftwareType,DateUTC
2013-03-22 00:03:00,68.0,58.0,-100.00,SE,130,6.0,9.0,70,0.00,,,0.00,0.000000,,2013-03-22 10:03:00,
2013-03-22 00:12:00,68.0,58.0,-100.00,SE,130,6.0,9.0,70,0.00,,,0.00,0.000000,,2013-03-22 10:12:00,
2013-03-22 00:22:00,68.0,58.0,-100.00,SE,130,6.0,9.0,70,0.00,,,0.00,0.000000,,2013-03-22 10:22:00,
2013-03-22 00:32:00,68.0,58.0,-100.00,SE,130,6.0,9.0,70,0.00,,,0.00,0.000000,,2013-03-22 10:32:00,
2013-03-22 01:02:00,67.0,56.0,-100.00,SE,133,6.0,10.0,69,0.00,,,0.00,0.000000,,2013-03-22 11:02:00,
2013-03-22 01:12:00,67.0,56.0,-100.00,SE,133,6.0,10.0,69,0.00,,,0.00,0.000000,,2013-03-22 11:12:00,
2013-03-22 01:22:00,67.0,56.0,-100.00,SE,133,6.0,10.0,69,0.00,,,0.00,0.000000,,2013-03-22 11:22:00,
2013-03-22 01:32:00,67.0,56.0,-100.00,SE,133,6.0,10.0,69,0.00,,,0.00,0.000000,,2013-03-22 11:32:00,
2013-03-22 02:02:00,68.0,58.0,-100.00,SE,135,6.0,9.0,70,0.00,,,0.00,0.000000,,2013-03-22 12:02:00,
2013-03-22 02:12:00,68.0,58.0,-100.00,SE,135,6.0,9.0,70,0.00,,,0.00,0.000000,,2013-03-22 12:12:00,
2013-03-22 02:22:00,68.0,58.0,-100.00,SE,135,6.0,9.0,70,0.00,,,0.00,0.000000,,2013-03-22 12:22:00,
2013-03-22 02:32:00,68.0,58.0,-100.00,SE,135,6.0,9.0,70,0.00,,,0.00,0.000000,,2013-03-22 12:32:00,
2013-03-22 03:02:00,68.0,55.0,-100.00,SE,131,7.0,9.0,63,0.00,,,0.00,0.000000,,2013-03-22 13:02:00,
2013-03-22 03:12:00,68.0,55.0,-100.00,SE,131,7.0,9.0,63,0.00,,,0.00,0.000000,,2013-03-22 13:12:00,
2013-03-22 03:22:00,68.0,55.0,-100.00,SE,131,7.0,9.0,63,0.00,,,0.00,0.000000,,2013-03-22 13:22:00,
2013-03-22 03:32:00,68.0,55.0,-100.00,SE,131,7.0,9.0,63,0.00,,,0.00,0.000000,,2013-03-22 13:32:00,
2013-03-22 04:02:00,67.0,55.0,-100.00,SE,126,8.0,11.0,65,0.00,,,0.00,0.000000,,2013-03-22 14:02:00,
2013-03-22 04:12:00,67.0,55.0,-100.00,SE,126,8.0,11.0,65,0.00,,,0.00,0.000000,,2013-03-22 14:12:00,
2013-03-22 04:21:00,67.0,55.0,-100.00,SE,126,8.0,11.0,65,0.00,,,0.00,0.000000,,2013-03-22 14:21:00,
2013-03-22 04:31:00,67.0,55.0,-100.00,SE,126,8.0,11.0,65,0.00,,,0.00,0.000000,,2013-03-22 14:31:00,
2013-03-22 05:02:00,67.0,52.0,-100.00,East,101,5.0,11.0,59,0.00,,,0.00,0.000000,,2013-03-22 15:02:00,
2013-03-22 05:12:00,67.0,52.0,-100.00,East,101,5.0,11.0,59,0.00,,,0.00,0.000000,,2013-03-22 15:12:00,
2013-03-22 05:22:00,67.0,52.0,-100.00,East,101,5.0,11.0,59,0.00,,,0.00,0.000000,,2013-03-22 15:22:00,
2013-03-22 05:32:00,67.0,52.0,-100.00,East,101,5.0,11.0,59,0.00,,,0.00,0.000000,,2013-03-22 15:32:00,
2013-03-22 06:02:00,66.0,52.0,-100.00,ESE,116,9.0,12.0,60,0.00,,,0.00,0.000000,,2013-03-22 16:02:00,
2013-03-22 06:13:00,66.0,52.0,-100.00,ESE,116,9.0,12.0,60,0.00,,,0.00,0.000000,,2013-03-22 16:13:00,
2013-03-22 06:22:00,66.0,52.0,-100.00,ESE,116,9.0,12.0,60,0.00,,,0.00,0.000000,,2013-03-22 16:22:00,
2013-03-22 06:32:00,66.0,52.0,-100.00,ESE,116,9.0,12.0,60,0.00,,,0.00,0.000000,,2013-03-22 16:32:00,
2013-03-22 07:03:00,64.0,54.0,-100.00,ESE,108,5.0,12.0,71,0.00,,,0.00,1.000000,,2013-03-22 17:03:00,
2013-03-22 07:12:00,64.0,54.0,-100.00,ESE,108,5.0,12.0,71,0.00,,,0.00,1.000000,,2013-03-22 17:12:00,
2013-03-22 07:22:00,64.0,54.0,-100.00,ESE,108,5.0,12.0,71,0.00,,,0.00,1.000000,,2013-03-22 17:22:00,
2013-03-22 07:32:00,64.0,54.0,-100.00,ESE,108,5.0,12.0,71,0.00,,,0.00,1.000000,,2013-03-22 17:32:00,
2013-03-22 08:02:00,72.0,60.0,-100.00,ENE,71,5.0,10.0,65,0.00,,,0.00,81.000000,,2013-03-22 18:02:00,
2013-03-22 08:12:00,72.0,60.0,-100.00,ENE,71,5.0,10.0,65,0.00,,,0.00,81.000000,,2013-03-22 18:12:00,
2013-03-22 08:22:00,72.0,60.0,-100.00,ENE,71,5.0,10.0,65,0.00,,,0.00,81.000000,,2013-03-22 18:22:00,
2013-03-22 08:32:00,72.0,60.0,-100.00,ENE,71,5.0,10.0,65,0.00,,,0.00,81.000000,,2013-03-22 18:32:00,
2013-03-22 09:02:00,74.0,63.0,-100.00,NE,38,3.0,10.0,68,0.00,,,0.00,191.000000,,2013-03-22 19:02:00,
2013-03-22 09:12:00,74.0,63.0,-100.00,NE,38,3.0,10.0,68,0.00,,,0.00,191.000000,,2013-03-22 19:12:00,
2013-03-22 09:22:00,74.0,63.0,-100.00,NE,38,3.0,10.0,68,0.00,,,0.00,191.000000,,2013-03-22 19:22:00,
2013-03-22 09:32:00,74.0,63.0,-100.00,NE,38,3.0,10.0,68,0.00,,,0.00,191.000000,,2013-03-22 19:32:00,
2013-03-22 10:02:00,77.0,62.0,-100.00,NW,307,5.0,8.0,60,0.00,,,0.00,398.000000,,2013-03-22 20:02:00,
2013-03-22 10:12:00,77.0,62.0,-100.00,NW,307,5.0,8.0,60,0.00,,,0.00,398.000000,,2013-03-22 20:12:00,
2013-03-22 10:22:00,77.0,62.0,-100.00,NW,307,5.0,8.0,60,0.00,,,0.00,398.000000,,2013-03-22 20:22:00,
2013-03-22 10:32:00,77.0,62.0,-100.00,NW,307,5.0,8.0,60,0.00,,,0.00,398.000000,,2013-03-22 20:32:00,
2013-03-22 11:02:00,77.0,61.0,-100.00,NW,318,6.0,11.0,57,0.00,,,0.00,473.000000,,2013-03-22 21:02:00,
2013-03-22 11:12:00,77.0,61.0,-100.00,NW,318,6.0,11.0,57,0.00,,,0.00,473.000000,,2013-03-22 21:12:00,
2013-03-22 11:22:00,77.0,61.0,-100.00,NW,318,6.0,11.0,57,0.00,,,0.00,473.000000,,2013-03-22 21:22:00,
2013-03-22 11:32:00,77.0,61.0,-100.00,NW,318,6.0,11.0,57,0.00,,,0.00,473.000000,,2013-03-22 21:32:00,
2013-03-22 12:02:00,76.0,62.0,-100.00,WNW,287,8.0,13.0,63,0.00,,,0.00,465.000000,,2013-03-22 22:02:00,
2013-03-22 12:12:00,76.0,62.0,-100.00,WNW,287,8.0,13.0,63,0.00,,,0.00,465.000000,,2013-03-22 22:12:00,
2013-03-22 12:22:00,76.0,62.0,-100.00,WNW,287,8.0,13.0,63,0.00,,,0.00,465.000000,,2013-03-22 22:22:00,
2013-03-22 12:32:00,76.0,62.0,-100.00,WNW,287,8.0,13.0,63,0.00,,,0.00,465.000000,,2013-03-22 22:32:00,
2013-03-22 13:02:00,75.0,64.0,-100.00,WNW,287,8.0,12.0,69,0.00,,,0.00,424.000000,,2013-03-22 23:02:00,
2013-03-22 13:12:00,75.0,64.0,-100.00,WNW,287,8.0,12.0,69,0.00,,,0.00,424.000000,,2013-03-22 23:12:00,
2013-03-22 13:22:00,75.0,64.0,-100.00,WNW,287,8.0,12.0,69,0.00,,,0.00,424.000000,,2013-03-22 23:22:00,
2013-03-22 13:32:00,75.0,64.0,-100.00,WNW,287,8.0,12.0,69,0.00,,,0.00,424.000000,,2013-03-22 23:32:00,
2013-03-22 14:02:00,76.0,62.0,-100.00,WNW,289,7.0,11.0,62,0.00,,,0.00,449.000000,,2013-03-23 00:02:00,
2013-03-22 14:12:00,76.0,62.0,-100.00,WNW,289,7.0,11.0,62,0.00,,,0.00,449.000000,,2013-03-23 00:12:00,
2013-03-22 14:22:00,76.0,62.0,-100.00,WNW,289,7.0,11.0,62,0.00,,,0.00,449.000000,,2013-03-23 00:22:00,
2013-03-22 14:32:00,76.0,62.0,-100.00,WNW,289,7.0,11.0,62,0.00,,,0.00,449.000000,,2013-03-23 00:32:00,
2013-03-22 15:03:00,76.0,62.0,-100.00,NW,310,6.0,12.0,62,0.00,,,0.00,411.000000,,2013-03-23 01:03:00,
2013-03-22 15:12:00,76.0,62.0,-100.00,NW,310,6.0,12.0,62,0.00,,,0.00,411.000000,,2013-03-23 01:12:00,
2013-03-22 15:22:00,76.0,62.0,-100.00,NW,310,6.0,12.0,62,0.00,,,0.00,411.000000,,2013-03-23 01:22:00,
2013-03-22 15:31:00,76.0,62.0,-100.00,NW,310,6.0,12.0,62,0.00,,,0.00,411.000000,,2013-03-23 01:31:00,
2013-03-22 16:02:00,76.0,62.0,-100.00,NW,320,5.0,11.0,61,0.00,,,0.00,389.000000,,2013-03-23 02:02:00,
2013-03-22 16:12:00,76.0,62.0,-100.00,NW,320,5.0,11.0,61,0.00,,,0.00,389.000000,,2013-03-23 02:12:00,
2013-03-22 16:22:00,76.0,62.0,-100.00,NW,320,5.0,11.0,61,0.00,,,0.00,389.000000,,2013-03-23 02:22:00,
2013-03-22 16:31:00,76.0,62.0,-100.00,NW,320,5.0,11.0,61,0.00,,,0.00,389.000000,,2013-03-23 02:31:00,
2013-03-22 17:02:00,75.0,63.0,-100.00,NW,313,4.0,11.0,66,0.00,,,0.00,357.000000,,2013-03-23 03:02:00,
2013-03-22 17:12:00,75.0,63.0,-100.00,NW,313,4.0,11.0,66,0.00,,,0.00,357.000000,,2013-03-23 03:12:00,
2013-03-22 17:22:00,75.0,63.0,-100.00,NW,313,4.0,11.0,66,0.00,,,0.00,357.000000,,2013-03-23 03:22:00,
2013-03-22 17:32:00,75.0,63.0,-100.00,NW,313,4.0,11.0,66,0.00,,,0.00,357.000000,,2013-03-23 03:32:00,
2013-03-22 18:02:00,73.0,63.0,-100.00,NW,313,5.0,9.0,71,0.00,,,-99.99,183.000000,,2013-03-23 04:02:00,
2013-03-22 18:12:00,73.0,63.0,-100.00,NW,313,5.0,9.0,71,0.00,,,-99.99,183.000000,,2013-03-23 04:12:00,
2013-03-22 18:23:00,73.0,63.0,-100.00,NW,313,5.0,9.0,71,0.00,,,-99.99,183.000000,,2013-03-23 04:23:00,
2013-03-22 18:32:00,73.0,63.0,-100.00,NW,313,5.0,9.0,71,0.00,,,-99.99,183.000000,,2013-03-23 04:32:00,
2013-03-22 19:02:00,72.0,64.0,-100.00,NW,307,3.0,7.0,75,0.00,,,0.00,30.000000,,2013-03-23 05:02:00,
2013-03-22 19:12:00,72.0,64.0,-100.00,NW,307,3.0,7.0,75,0.00,,,0.00,30.000000,,2013-03-23 05:12:00,
2013-03-22 19:22:00,72.0,64.0,-100.00,NW,307,3.0,7.0,75,0.00,,,0.00,30.000000,,2013-03-23 05:22:00,
2013-03-22 19:32:00,72.0,64.0,-100.00,NW,307,3.0,7.0,75,0.00,,,0.00,30.000000,,2013-03-23 05:32:00,
2013-03-22 20:02:00,71.0,66.0,-100.00,WNW,301,4.0,5.0,85,0.00,,,0.00,0.000000,,2013-03-23 06:02:00,
2013-03-22 20:12:00,71.0,66.0,-100.00,WNW,301,4.0,5.0,85,0.00,,,0.00,0.000000,,2013-03-23 06:12:00,
2013-03-22 20:22:00,71.0,66.0,-100.00,WNW,301,4.0,5.0,85,0.00,,,0.00,0.000000,,2013-03-23 06:22:00,
2013-03-22 20:31:00,71.0,66.0,-100.00,WNW,301,4.0,5.0,85,0.00,,,0.00,0.000000,,2013-03-23 06:31:00,
2013-03-22 21:02:00,71.0,65.0,-100.00,WNW,301,2.0,6.0,82,0.00,,,0.00,0.000000,,2013-03-23 07:02:00,
2013-03-22 21:12:00,71.0,65.0,-100.00,WNW,301,2.0,6.0,82,0.00,,,0.00,0.000000,,2013-03-23 07:12:00,
2013-03-22 21:22:00,71.0,65.0,-100.00,WNW,301,2.0,6.0,82,0.00,,,0.00,0.000000,,2013-03-23 07:22:00,
2013-03-22 21:32:00,71.0,65.0,-100.00,WNW,301,2.0,6.0,82,0.00,,,0.00,0.000000,,2013-03-23 07:32:00,
2013-03-22 22:02:00,71.0,64.0,-100.00,West,276,3.0,5.0,78,0.00,,,0.00,0.000000,,2013-03-23 08:02:00,
2013-03-22 22:12:00,71.0,64.0,-100.00,West,276,3.0,5.0,78,0.00,,,0.00,0.000000,,2013-03-23 08:12:00,
2013-03-22 22:22:00,71.0,64.0,-100.00,West,276,3.0,5.0,78,0.00,,,0.00,0.000000,,2013-03-23 08:22:00,
2013-03-22 22:31:00,71.0,64.0,-100.00,West,276,3.0,5.0,78,0.00,,,0.00,0.000000,,2013-03-23 08:31:00,
2013-03-22 23:02:00,70.0,64.0,-100.00,SE,142,3.0,5.0,80,0.00,,,0.00,0.000000,,2013-03-23 09:02:00,
2013-03-22 23:12:00,70.0,64.0,-100.00,SE,142,3.0,5.0,80,0.00,,,0.00,0.000000,,2013-03-23 09:12:00,
2013-03-22 23:22:00,70.0,64.0,-100.00,SE,142,3.0,5.0,80,0.00,,,0.00,0.000000,,2013-03-23 09:22:00,
2013-03-22 23:32:00,70.0,64.0,-100.00,SE,142,3.0,5.0,80,0.00,,,0.00,0.000000,,2013-03-23 09:32:00,